Perryton, Texas, United States (79070)
Lat: 36.40N, Lon: 100.8W
Wx Zone: TXZ004
Local Info
Past Weather Observations for Today

NOTE: This archive is for the closest National Weather Service station to Perryton. Information may differ from the station used for current weather conditions.

Click here for Long-term Archive

Time Weather Temperature Dewpoint Humidity Pressure Winds Precip Visibility
19:35
Clear
81°F / 27°C 66°F / 19°C 62% 30.01 in
(1016 mb)
SW 4.6 mph
(SW 7 kph)
- 10SM
19:15
Clear
84°F / 29°C 66°F / 19°C 55% 29.98 in
(1015 mb)
S 3.5 mph
(S 6 kph)
- 10SM
18:55
Clear
86°F / 30°C 64°F / 18°C 49% 29.98 in
(1015 mb)
SSE 5.8 mph
(SSE 9 kph)
- 10SM
18:35
Clear
88°F / 31°C 66°F / 19°C 49% 29.98 in
(1015 mb)
SSE 3.5 mph
(SSE 6 kph)
- 10SM
18:15
Clear
88°F / 31°C 66°F / 19°C 49% 29.98 in
(1015 mb)
SW 4.6 mph
(SW 7 kph)
- 10SM
17:55
Clear
90°F / 32°C 64°F / 18°C 43% 29.98 in
(1015 mb)
SW 4.6 mph
(SW 7 kph)
- 10SM
17:15
Clear
91°F / 33°C 63°F / 17°C 38% 29.98 in
(1015 mb)
S 5.8 mph
(S 9 kph)
- 10SM
16:55
Clear
91°F / 33°C 63°F / 17°C 38% 29.98 in
(1015 mb)
SSE 3.5 mph
(SSE 6 kph)
- 10SM
16:35
Clear
91°F / 33°C 63°F / 17°C 38% 29.98 in
(1015 mb)
S 6.9 mph
(S 11 kph)
- 10SM
16:15
Clear
91°F / 33°C 64°F / 18°C 41% 29.98 in
(1015 mb)
SW 12.7 mph
(SW 20 kph)
- 10SM
15:55
Clear
91°F / 33°C 64°F / 18°C 41% 29.98 in
(1015 mb)
SW 10.4 mph
(SW 17 kph)
- 10SM
15:35
Clear
90°F / 32°C 64°F / 18°C 43% 30.01 in
(1016 mb)
SW 12.7 mph
(SW 20 kph)
- 10SM
15:15
Clear
88°F / 31°C 64°F / 18°C 46% 30.01 in
(1016 mb)
S 15 mph
(S 24 kph)
- 10SM
14:55
Clear
88°F / 31°C 66°F / 19°C 49% 30.04 in
(1017 mb)
SW 10.4 mph
(SW 17 kph)
- 10SM
14:35
Clear
88°F / 31°C 64°F / 18°C 46% 30.06 in
(1018 mb)
SW 6.9 mph
(SW 11 kph)
- 10SM
14:15
Partly Cloudy
88°F / 31°C 64°F / 18°C 46% 30.06 in
(1018 mb)
SSW 8.1 mph
(SSW 13 kph)
- 10SM
13:55
Clear
90°F / 32°C 66°F / 19°C 46% 30.06 in
(1018 mb)
W 10.4 mph
(W 17 kph)
- 10SM
13:35
Clear
88°F / 31°C 66°F / 19°C 49% 30.04 in
(1017 mb)
S 9.2 mph
(S 15 kph)
- 10SM
13:15
Clear
84°F / 29°C 66°F / 19°C 55% 30.06 in
(1018 mb)
Calm - 10SM
12:55
Clear
84°F / 29°C 66°F / 19°C 55% 30.06 in
(1018 mb)
NW 3.5 mph
(NW 6 kph)
- 10SM
12:35
Clear
82°F / 28°C 66°F / 19°C 58% 30.06 in
(1018 mb)
W 3.5 mph
(W 6 kph)
- 10SM
12:15
Clear
81°F / 27°C 64°F / 18°C 58% 30.09 in
(1019 mb)
WNW 4.6 mph
(WNW 7 kph)
- 10SM
11:55
Clear
77°F / 25°C 66°F / 19°C 69% 30.06 in
(1018 mb)
SW 9.2 mph
(SW 15 kph)
- 10SM
11:35
Clear
77°F / 25°C 66°F / 19°C 69% 30.09 in
(1019 mb)
SSW 9.2 mph
(SSW 15 kph)
- 10SM
11:15
Clear
77°F / 25°C 66°F / 19°C 69% 30.09 in
(1019 mb)
SW 3.5 mph
(SW 6 kph)
- 10SM
10:55
Clear
73°F / 23°C 66°F / 19°C 78% 30.12 in
(1020 mb)
NW 4.6 mph
(NW 7 kph)
- 10SM
10:35
Clear
73°F / 23°C 66°F / 19°C 78% 30.12 in
(1020 mb)
ESE 4.6 mph
(ESE 7 kph)
- 10SM
10:15
Clear
73°F / 23°C 66°F / 19°C 78% 30.12 in
(1020 mb)
Calm - 10SM
09:55
Clear
73°F / 23°C 66°F / 19°C 78% 30.12 in
(1020 mb)
Calm 0.01 in
(0.25 mm)
10SM
09:35
Clear
72°F / 22°C 66°F / 19°C 83% 30.12 in
(1020 mb)
SSW 3.5 mph
(SSW 6 kph)
0.01 in
(0.25 mm)
10SM
09:15
Clear
70°F / 21°C 66°F / 19°C 88% 30.09 in
(1019 mb)
SSE 12.7 mph
(SSE 20 kph)
0.01 in
(0.25 mm)
10SM
08:55
Clear
68°F / 20°C 66°F / 19°C 94% 30.09 in
(1019 mb)
NE 8.1 mph
(NE 13 kph)
0.02 in
(0.51 mm)
10SM
08:35
Partly Cloudy
Thunder Storms
68°F / 20°C 66°F / 19°C 94% 30.09 in
(1019 mb)
SE 10.4 mph
(SE 17 kph)
0.02 in
(0.51 mm)
7SM
08:15
Partly Cloudy
Thunder Storms
68°F / 20°C 66°F / 19°C 94% 30.06 in
(1018 mb)
E 9.2 mph
(E 15 kph)
- 10SM
07:55
Mostly Cloudy
Thunder Storms
68°F / 20°C 64°F / 18°C 88% 30.01 in
(1016 mb)
SE 25.3 mph
(SE 41 kph)
0.05 in
(1.27 mm)
4SM
07:35
Partly Cloudy
Thunder Storms
70°F / 21°C 66°F / 19°C 88% 30.06 in
(1018 mb)
SE 21.9 mph
(SE 35 kph)
- 10SM
07:15
Partly Cloudy
Thunder Storms
70°F / 21°C 66°F / 19°C 88% 30.06 in
(1018 mb)
ESE 15 mph
(ESE 24 kph)
- 10SM
06:55
Partly Cloudy
Thunder Storms
70°F / 21°C 66°F / 19°C 88% 30.09 in
(1019 mb)
E 11.5 mph
(E 19 kph)
- 10SM
06:35
Partly Cloudy
Light Rain
72°F / 22°C 66°F / 19°C 83% 30.09 in
(1019 mb)
E 6.9 mph
(E 11 kph)
- 10SM
06:15
Mostly Cloudy
Thunder Storms
73°F / 23°C 64°F / 18°C 74% 30.12 in
(1020 mb)
NE 9.2 mph
(NE 15 kph)
- 10SM
05:55
Overcast
Thunder Storms
73°F / 23°C 61°F / 16°C 65% 30.12 in
(1020 mb)
NNE 8.1 mph
(NNE 13 kph)
- 10SM
05:35
Mostly Cloudy
Thunder Storms
75°F / 24°C 61°F / 16°C 61% 30.09 in
(1019 mb)
NE 5.8 mph
(NE 9 kph)
- 10SM
05:15
Clear
75°F / 24°C 59°F / 15°C 57% 30.06 in
(1018 mb)
E 8.1 mph
(E 13 kph)
- 10SM
04:55
Clear
75°F / 24°C 59°F / 15°C 57% 30.06 in
(1018 mb)
Calm - 10SM
04:35
Clear
75°F / 24°C 59°F / 15°C 57% 30.04 in
(1017 mb)
NE 4.6 mph
(NE 7 kph)
- 10SM
04:15
Clear
75°F / 24°C 61°F / 16°C 61% 30.04 in
(1017 mb)
NE 9.2 mph
(NE 15 kph)
- 10SM
03:55
Clear
75°F / 24°C 64°F / 18°C 69% 30.04 in
(1017 mb)
NNE 11.5 mph
(NNE 19 kph)
- 10SM
03:35
Partly Cloudy
75°F / 24°C 68°F / 20°C 78% 30.06 in
(1018 mb)
N 17.3 mph
(N 28 kph)
- 10SM
03:15
Mostly Cloudy
75°F / 24°C 68°F / 20°C 78% 30.04 in
(1017 mb)
N 23 mph
(N 37 kph)
- 10SM
02:55
Clear
72°F / 22°C 66°F / 19°C 83% 30.01 in
(1016 mb)
NNW 5.8 mph
(NNW 9 kph)
- 10SM
02:35
Clear
72°F / 22°C 66°F / 19°C 83% 30.01 in
(1016 mb)
Calm - 10SM
02:15
Clear
72°F / 22°C 66°F / 19°C 83% 30.01 in
(1016 mb)
Calm - 10SM
01:55
Clear
73°F / 23°C 66°F / 19°C 78% 30.01 in
(1016 mb)
Calm - 10SM
01:35
Clear
73°F / 23°C 66°F / 19°C 78% 30.01 in
(1016 mb)
Calm - 10SM
01:15
Clear
77°F / 25°C 66°F / 19°C 69% 30.01 in
(1016 mb)
Calm - 10SM
00:55
Clear
77°F / 25°C 66°F / 19°C 69% 30.04 in
(1017 mb)
E 3.5 mph
(E 6 kph)
- 10SM
00:35
Clear
77°F / 25°C 66°F / 19°C 69% 30.01 in
(1016 mb)
Calm - 10SM
00:15
Clear
77°F / 25°C 66°F / 19°C 69% 30.01 in
(1016 mb)
Calm - 10SM
Time Weather Temperature Dewpoint Humidity Pressure Winds Precip Visibility


Weather for websites

WeatherForYou.com, LLC is not responsible for any damages or problems caused by this service. Current weather conditions are obtained from the closest station including government and personal stations which may have varying degrees of accuracy. Weather forecasts are derived from the NOAA NDFD. Like all things, this site belongs to Jesus Christ... He just trusts us to maintain it. If you have any questions or comments email webmaster@weatherforyou.com

Copyright © 2016, WeatherForYou.com LLC. All rights reserved.